This is the latest recevied weather packets stored in our database for station/object DM8MH-13. If no packets are shown the sender has not sent any weather packets the latest 10 day(s).
| Time | Temp. | Humidity | Pressure | Rain* | Wind** | Luminosity | Snow |
|---|---|---|---|---|---|---|---|
| 1777449080 | 10° C | 55% | 1027.6 hPa | 0 mm | - | 461 W/m² | - |
| 1777448471 | 9.44° C | 57% | 1027.4 hPa | 0 mm | - | 479 W/m² | - |
| 1777447871 | 9.44° C | 56% | 1027.3 hPa | 0 mm | - | 425 W/m² | - |
| 1777447286 | 8.89° C | 56% | 1027.3 hPa | 0 mm | - | 372 W/m² | - |
| 1777446671 | 8.89° C | 57% | 1027.3 hPa | 0 mm | - | 385 W/m² | - |
| 1777445484 | 8.33° C | 58% | 1027.1 hPa | 0 mm | - | 392 W/m² | - |
| 1777444872 | 8.33° C | 58% | 1026.9 hPa | 0 mm | - | 212 W/m² | - |
| 1777444270 | 8.33° C | 57% | 1027 hPa | 0 mm | - | 335 W/m² | - |
| 1777443686 | 8.33° C | 58% | 1026.9 hPa | 0 mm | - | 319 W/m² | - |
| 1777443072 | 8.33° C | 59% | 1026.9 hPa | 0 mm | - | 287 W/m² | - |
| 1777441885 | 7.22° C | 60% | 1026.7 hPa | 0 mm | - | 237 W/m² | - |
| 1777441272 | 7.22° C | 60% | 1026.7 hPa | 0 mm | - | 206 W/m² | - |
| 1777440671 | 7.22° C | 62% | 1026.7 hPa | 0 mm | - | 183 W/m² | - |
| 1777440081 | 6.67° C | 62% | 1026.6 hPa | 0 mm | - | 157 W/m² | - |
| 1777439472 | 6.11° C | 65% | 1026.5 hPa | 0 mm | - | 121 W/m² | - |
| 1777438286 | 5.56° C | 65% | 1026.2 hPa | 0 mm | - | 74 W/m² | - |
| 1777437671 | 5° C | 64% | 1026 hPa | 0 mm | - | 49 W/m² | - |
| 1777437071 | 5° C | 64% | 1025.9 hPa | 0 mm | - | 15 W/m² | - |
| 1777436486 | 5° C | 64% | 1025.9 hPa | 0 mm | - | 12 W/m² | - |
| 1777435872 | 5° C | 64% | 1025.8 hPa | 0 mm | - | 9 W/m² | - |
| 1777434685 | 4.44° C | 65% | 1025.8 hPa | 0 mm | - | 0 W/m² | - |
| 1777434071 | 4.44° C | 66% | 1025.8 hPa | 0 mm | - | 0 W/m² | - |
| 1777433472 | 3.89° C | 67% | 1025.7 hPa | 0 mm | - | 0 W/m² | - |
| 1777432877 | 3.89° C | 67% | 1025.5 hPa | 0 mm | - | 0 W/m² | - |
| 1777432271 | 4.44° C | 66% | 1025.5 hPa | 0 mm | - | 0 W/m² | - |
* Rain latest hour (hover to see other rain measurements)
** Current wind speed in m/s (hover to see current wind gust speed)